SCP
0 0 0 0 0 0 0 0 0 0 0 0 0 0 0 0 0 0 0 0 0 0 -0 -0 -0 -0 0 0 0 0 0 0 0 0 0 0 0 0 0 0 0 0 0 0 0 0 0
0 0 0 0 0 0 0 0 0 0 0 0 0 0 0 0 0 0 0 0 0 0 0 0 0 0 0 0 0 0 0 0 0 0 0 0 0 0 0 0 0 0 0 0 0 0 0
0 0 0 0 0 0 0 0 0 0 0 0 0 0 0 0 0 0 0 0 0 -0 -0 -0 0 0 -0 0 0 0 0 0 0 0 0 0 0 0 0 0 0 0 0 0 0 0 0
0 0 0 0 0 0 0 0 0 0 0 0 -0 0 0 0 -0 0 0 0 0 -0 -0 0 -0 0 0 0 0 0 0 0 0 0 0 0 0 0 0 0 0 0 0 0 0 0 0
0 0 0 0 0 0 0 0 -0 0 0 0 -0 -0 -0 0 -0 0 0 0 0 0 0 0 0 0 0 -0 0 0 0 0 0 0 0 0 0 0 0 0 0 0 0 0 0 0 0
0 0 0 0 0 0 0 0 0 -0 -0 0 0 -0 -0 -0 -0 0 0 0 0 0 0 0 0 0 0 0 0 0 0 0 0 0 0 0 0 0 0 0 0 0 0 0 0 0 0
0 0 0 0 0 0 0 0 0 -0 -0 -0 0 -0 -0 0 0 -0 0 0 0 0 0 0 0 0 0 0 0 0 0 -0 0 0 0 0 0 0 0 0 0 0 0 0 0 0 0
-0 -0 -0 -0 0 0 0 0 0 0 0 0 0 -0 -0 -0 -0 -0 0 0 0 0 0 0 0 0 0 0 0 0 0 0 0 0 0 0 0 0 0 0 0 0 0 0 0 0 0
0 -0 -0 -0 0 0 0 0 0 0 0 0 0 0 -0 -0 -0 -0 -0 0 0 0 0 0 0 0 0 0 0 0 0 0 0 0 0 0 0 0 0 0 0 0 0 0 0 0 0
0 0 -0 -0 -0 0 0 0 0 0 0 0 0 0 -0 -0 -0 -0 -0 -0 0 0 0 0 0 0 0 0 0 0 0 0 0 0 0 0 0 0 0 0 0 0 0 0 0 0 0
0 0 0 -0 -0 0 0 0 0 0 0 0 0 0 0 0 0 0 0 -0 -0 0 0 0 0 0 0 0 0 0 0 0 0 0 0 0 0 0 0 0 0 0 0 0 0 0 0
0 0 0 -0 -0 -0 0 0 0 0 0 0 0 0 0 0 0 0 -0 -0 0 0 0 0 0 0 0 0 0 0 0 0 0 0 0 0 0 0 0 0 0 0 0 0 0 0 0
0 0 0 0 -0 -0 0 0 0 0 -0 0 0 0 0 0 0 0 0 0 0 0 0 0 0 0 0 0 0 0 0 0 0 0 0 0 0 0 0 0 0 0 0 0 0 0 0
0 0 0 0 0 0 0 0 0 0 0 -0 0 0 0 0 0 0 0 0 0 0 0 0 0 0 -0 0 0 0 0 0 0 0 0 0 0 0 0 0 0 0 0 0 0 0 0
0 0 0 0 0 0 0 0 0 0 0 0 0 0 0 0 0 0 0 0 0 0 0 0 0 0 -0 -0 -0 -0 -0 0 0 0 0 0 0 0 0 0 0 0 0 0 0 0 0
0 0 0 0 0 0 0 -0 -0 0 0 0 0 0 0 0 0 0 0 0 0 0 0 0 0 0 0 -0 -0 -0 -0 0 0 0 0 0 0 0 0 0 0 0 0 0 0 -0 0
0 0 0 0 0 0 0 -0 -0 -0 0 0 0 0 0 0 0 0 0 0 0 0 0 0 0 0 0 -0 -0 -0 -0 -0 -0 0 0 0 0 0 0 0 0 0 0 0 0 0 -0
0 0 0 0 0 0 0 -0 -0 -0 -0 0 0 0 0 0 0 0 0 0 0 0 0 0 0 0 0 -0 -0 -0 -0 -0 -0 -0 -0 0 -0 -0 -0 0 0 0 0 0 0 0 0
0 0 0 0 0 0 0 -0 -0 -0 0 0 0 0 0 0 0 0 0 0 0 0 0 0 0 0 0 0 0 -0 -0 -0 -0 -0 -0 -0 -0 -0 0 0 0 0 0 0 0 0 0
0 0 0 0 0 0 0 -0 -0 -0 0 0 0 0 0 0 0 0 0 0 0 0 0 0 0 0 -0 -0 -0 0 -0 -0 -0 -0 -0 -0 -0 -0 -0 0 0 0 0 0 0 0 0
0 0 0 0 0 0 0 0 -0 -0 -0 0 0 0 0 0 0 0 0 0 0 0 0 0 0 0 0 0 0 -0 -0 -0 -0 0 -0 -0 -0 -0 -0 -0 -0 -0 0 0 0 0 0
0 0 0 0 0 0 0 0 0 -0 0 0 0 0 0 0 0 0 0 0 0 0 0 0 0 0 0 0 0 0 0 0 -0 -0 -0 -0 -0 -0 -0 0 -0 -0 -0 -0 -0 -0 0
0 0 0 0 0 0 0 0 0 0 0 0 0 0 0 0 0 0 0 0 0 0 0 0 0 0 0 0 0 0 0 0 0 0 0 0 0 0 -0 0 0 -0 0 0 0 0 0
0 0 0 0 0 0 0 0 0 0 0 0 0 0 0 0 0 0 0 0 0 0 0 0 0 0 0 0 0 0 0 0 0 0 0 0 0 0 0 0 0 0 0 0 0 0 0
0 0 0 0 0 0 0 0 0 0 0 0 0 0 0 0 0 0 0 0 0 0 0 0 0 0 0 0 0 0 0 0 0 0 0 0 0 0 0 0 0 0 0 0 0 0 0
0 0 0 0 0 0 0 0 0 0 0 0 0 0 0 0 0 0 0 0 0 0 0 0 0 0 0 0 0 0 0 0 0 0 0 0 0 0 0 0 0 0 0 0 0 0 0
0 0 0 0 0 0 0 0 0 0 0 0 0 0 0 0 0 0 0 0 0 0 0 0 0 0 0 0 0 0 0 0 0 0 0 0 0 0 0 0 0 0 0 0 0 0 -0
0 0 0 0 0 0 0 0 0 0 0 0 0 0 0 0 0 0 0 0 0 0 0 0 0 0 0 0 0 0 0 0 0 0 0 0 0 0 0 0 0 0 0 0 0 0 0
0 0 0 0 0 0 0 0 0 0 0 0 0 0 0 0 0 0 0 0 0 0 0 0 0 0 0 0 0 0 0 0 0 0 0 0 0 0 0 0 0 0 0 0 0 0 0
Wind_Speed_500mb
32 28 26 27 27 20 16 17 20 28 36 41 36 25 35 36 38 42 47 48 36 36 38 41 28 18 15 4 4 21 16 20 25 38 37 24 44 12 13 11 9 9 3 17 18 24 21
41 37 33 29 27 25 15 13 17 23 29 34 34 27 25 28 32 37 38 33 25 19 14 19 13 4 7 9 11 14 16 28 36 45 30 28 22 5 13 7 4 14 22 13 25 28 15
38 38 39 38 33 28 22 16 15 19 23 25 28 24 28 27 31 38 38 32 26 32 35 33 26 28 37 16 4 10 19 32 30 53 23 16 4 4 10 10 21 11 12 13 26 17 9
35 38 39 39 39 37 31 21 18 18 19 21 21 14 19 22 24 27 27 17 23 27 28 20 25 25 14 16 9 18 18 32 29 48 27 16 6 2 3 25 10 10 12 8 11 16 5
32 34 36 39 41 43 42 33 21 16 15 14 20 21 15 12 13 15 17 10 6 10 16 30 13 23 13 20 25 30 31 28 38 34 31 0 3 5 9 10 10 15 8 7 5 12 3
30 33 36 40 43 47 49 46 29 16 11 12 16 20 16 9 11 14 16 29 44 32 10 6 14 18 7 17 12 17 5 1 4 24 10 16 7 8 8 8 10 10 13 6 8 6 7
28 31 34 37 43 49 53 54 38 16 9 9 11 7 11 16 16 9 4 7 14 31 50 32 24 23 12 26 28 20 28 48 41 21 10 3 14 6 2 4 2 14 13 13 1 5 2
27 29 32 36 41 47 55 59 40 21 12 9 12 4 10 14 17 19 22 30 22 10 10 43 40 23 23 2 35 43 43 2 10 4 4 13 9 7 4 7 8 10 17 6 3 5 4
26 28 31 33 38 44 52 58 38 24 18 17 12 8 19 13 5 2 13 22 22 20 7 26 27 33 23 18 15 21 14 2 11 25 23 15 6 8 11 15 10 9 10 8 10 4 8
26 28 31 32 34 41 48 57 44 23 14 24 26 11 18 24 16 18 17 17 13 12 10 21 21 23 23 16 11 32 8 5 10 8 10 13 14 10 15 14 5 8 10 7 14 7 6
22 26 28 30 33 38 43 50 53 27 15 20 34 19 2 27 13 9 11 10 6 3 10 23 18 17 22 12 9 25 22 26 10 8 11 4 10 14 19 6 3 6 8 8 7 10 8
23 25 28 30 32 36 41 46 49 37 19 16 32 24 7 7 17 12 7 5 4 12 4 15 12 14 13 24 16 17 16 22 4 18 19 7 6 8 4 4 9 8 9 14 9 6 6
22 24 28 31 33 36 40 45 52 49 20 11 28 24 14 6 2 4 4 1 10 12 5 12 6 11 6 12 13 15 12 13 6 10 9 10 9 8 9 8 11 12 11 7 7 8 9
21 23 25 29 33 35 40 43 48 53 36 7 30 22 19 12 7 7 6 10 16 9 9 8 5 7 8 10 9 12 6 11 11 9 7 9 10 11 14 7 8 7 8 9 11 6 7
22 23 24 27 30 33 37 41 44 48 44 16 3 32 19 13 6 1 3 11 12 11 3 8 5 6 9 8 4 10 7 6 6 10 5 9 5 5 7 5 4 5 5 6 12 5 7
23 24 25 27 29 32 35 39 42 46 46 25 8 6 35 12 9 2 10 6 1 5 6 2 4 5 4 8 6 7 10 6 10 7 2 3 9 4 6 4 8 4 11 8 6 4 6
23 24 25 26 29 32 34 37 40 41 45 31 10 3 32 13 6 10 8 6 4 1 4 6 3 5 4 4 5 3 1 8 8 11 8 2 6 6 5 3 7 3 2 8 6 7 9
25 27 28 27 28 31 34 36 41 44 42 33 9 6 29 12 8 8 5 2 3 4 5 5 4 5 5 9 8 6 2 3 6 3 4 5 7 5 5 3 4 5 4 7 8 7 1
24 26 29 30 30 30 33 35 38 41 43 34 8 6 16 15 6 3 2 4 3 2 4 5 5 6 5 5 7 5 3 4 12 7 5 1 4 5 11 7 5 5 7 8 9 5 10
25 25 24 27 30 32 33 33 34 37 38 33 11 6 10 13 11 9 8 4 5 6 5 6 6 3 5 5 7 1 5 7 10 7 9 5 4 7 10 7 6 5 6 7 8 6 7
27 31 30 27 29 31 33 33 33 31 30 23 11 3 4 5 10 5 4 5 4 5 4 6 3 9 11 3 4 2 1 6 8 9 8 6 1 3 7 10 5 7 11 13 18 15 15
23 24 28 31 30 29 31 32 33 31 26 14 10 7 4 4 2 3 6 3 6 3 6 5 4 8 9 11 15 12 8 5 3 4 4 6 1 3 7 4 4 11 19 18 16 12 21
27 29 24 23 24 27 29 31 31 28 25 10 9 8 5 4 4 4 4 3 5 2 4 5 3 2 4 6 10 6 7 16 20 16 9 4 4 6 8 9 14 14 12 17 8 10 17
29 29 29 20 23 23 26 27 26 23 18 13 11 7 3 5 2 6 1 1 2 2 4 7 6 6 8 3 4 2 3 7 6 5 11 13 14 7 6 9 5 11 6 7 13 8 10
31 30 30 23 19 21 22 23 23 22 17 13 9 5 4 4 7 5 6 5 4 1 1 3 3 2 4 7 7 5 5 4 4 9 9 9 5 2 5 6 12 3 3 6 6 3 4
41 36 33 31 23 21 21 22 16 18 20 18 11 6 3 1 8 5 5 7 6 3 7 6 6 6 3 7 4 4 7 6 5 4 9 6 8 5 0 2 9 3 3 2 4 6 4
50 46 40 38 33 26 24 25 19 17 19 21 13 10 6 7 7 10 7 7 9 6 4 4 4 5 8 5 4 7 7 2 5 10 10 7 5 11 7 5 15 9 8 1 1 5 7
54 55 51 44 44 35 30 29 27 21 19 21 17 18 13 9 16 15 15 12 10 9 7 7 4 4 5 3 5 5 5 5 2 7 9 11 12 8 6 7 15 7 2 5 8 15 12
51 54 59 55 53 46 41 37 35 27 25 23 26 20 16 21 15 12 20 26 25 18 9 18 4 6 12 6 3 4 5 0 3 6 3 5 10 9 15 11 10 5 15 22 19 13 22
Wind_Direction_500mb
38 30 22 23 27 32 27 17 10 14 21 21 17 30 45 45 32 23 18 12 31 64 81 104 101 101 152 239 49 170 196 163 173 162 154 166 166 146 142 159 104 93 120 53 78 111 102
40 34 26 18 16 19 19 6 2 7 17 21 25 27 24 24 13 19 20 18 27 55 85 63 64 129 92 77 118 181 188 151 159 177 144 166 179 102 133 130 105 121 99 82 55 77 78
35 34 31 27 18 6 5 355 335 344 0 12 26 36 45 41 33 32 30 30 60 70 91 72 49 89 86 59 340 174 160 155 168 169 157 143 91 69 128 92 120 110 73 45 21 18 80
32 28 26 24 20 17 3 350 343 325 332 351 11 6 12 32 30 34 34 54 97 89 89 71 29 46 67 31 121 131 133 141 154 171 177 128 119 221 71 124 42 63 54 84 335 7 45
29 25 22 20 17 14 10 359 340 335 330 341 352 11 353 5 22 38 36 58 15 0 55 36 35 49 19 71 92 111 100 115 136 148 182 206 177 108 113 83 47 18 113 82 55 23 16
22 21 19 16 13 12 10 4 351 330 339 320 339 2 12 32 49 57 62 64 58 45 289 43 118 54 63 98 118 134 141 38 327 119 209 226 176 78 35 60 165 152 104 64 130 327 39
20 16 15 14 12 10 9 7 359 342 336 351 348 331 48 65 75 85 30 24 36 45 51 68 70 84 85 113 71 67 116 119 152 194 211 65 80 106 333 355 124 130 111 116 341 333 114
17 11 11 11 12 10 8 10 7 3 358 5 13 235 134 116 103 84 54 50 41 29 352 31 48 68 60 98 64 94 142 218 190 200 166 52 74 317 293 89 87 76 112 82 46 24 89
12 10 10 10 13 11 11 11 15 17 16 8 351 344 203 187 186 293 5 20 13 9 45 15 17 23 17 53 77 127 210 167 57 73 71 90 316 29 95 50 82 37 112 165 150 120 57
7 7 8 8 13 11 13 11 15 21 18 11 1 343 212 208 247 269 315 344 1 11 69 327 354 11 355 350 40 31 44 94 52 80 60 69 350 66 76 81 30 72 329 107 113 86 165
2 3 5 3 8 9 10 14 15 13 9 3 7 8 230 205 230 291 287 334 13 53 55 309 322 349 14 60 325 11 34 61 64 21 96 338 24 31 62 340 340 115 64 72 88 87 82
354 359 -0 359 1 5 4 8 13 14 7 12 12 18 35 189 232 267 268 301 19 46 301 332 327 350 19 20 12 3 39 75 65 56 34 87 45 57 82 43 65 125 66 45 51 67 37
346 354 354 354 356 359 1 2 4 8 5 32 22 29 42 68 134 197 180 180 38 86 281 312 330 355 22 3 12 30 22 18 51 81 3 3 5 347 37 71 30 70 52 11 12 9 214
336 346 350 350 352 356 358 360 1 3 359 14 42 37 42 46 63 117 135 54 69 240 267 286 310 335 46 359 9 18 46 22 14 47 97 113 346 5 341 49 145 70 129 148 185 181 252
325 333 340 344 347 353 355 356 359 0 2 352 279 36 29 33 33 160 133 52 179 208 263 338 331 57 357 4 41 56 51 16 17 14 94 121 19 337 34 14 45 190 63 160 105 65 43
312 321 329 335 341 347 351 352 355 358 360 355 346 311 11 6 36 84 78 126 60 238 330 359 56 33 43 337 50 54 8 325 340 25 67 161 98 8 342 20 26 78 148 65 4 136 270
297 307 316 325 332 339 345 347 350 358 357 356 355 299 3 5 24 51 98 182 179 301 354 18 348 321 29 13 27 78 321 353 2 330 27 93 104 286 22 208 186 73 74 57 113 138 171
292 298 305 316 324 332 339 344 346 352 357 0 1 18 357 357 40 49 80 67 124 72 32 35 34 5 12 0 34 59 67 187 343 309 37 338 116 143 192 256 214 176 176 141 121 230 71
284 290 300 309 316 325 333 339 344 351 354 358 360 354 355 4 93 37 188 110 109 97 86 53 34 35 11 16 350 14 65 38 11 38 109 237 25 44 353 0 356 215 197 143 114 97 202
280 278 287 297 308 317 325 333 341 347 352 352 350 10 22 46 63 127 144 195 151 163 144 140 147 90 22 33 15 262 345 353 13 64 53 53 100 160 189 204 151 227 221 182 144 139 189
294 289 287 290 301 310 317 324 332 342 349 355 13 86 62 330 5 27 31 176 164 180 211 187 138 152 146 110 11 83 14 343 5 7 27 70 343 39 267 252 267 253 229 194 194 198 195
309 288 282 288 295 301 309 321 329 339 348 359 8 4 22 83 43 42 355 256 213 294 156 269 191 197 180 169 170 176 152 168 181 18 48 4 224 89 294 18 204 264 248 232 232 242 259
305 310 280 275 284 295 304 313 323 333 350 9 22 10 352 0 55 54 270 261 264 30 304 320 240 48 294 260 188 200 208 168 168 156 154 95 86 28 292 344 306 281 229 207 193 205 207
293 301 313 290 277 287 301 312 326 330 342 3 11 349 336 276 149 203 205 37 315 327 324 338 349 341 348 13 324 317 293 290 233 323 171 148 141 141 248 5 343 251 308 225 211 256 245
272 282 294 306 286 285 289 306 321 331 335 326 341 4 320 283 244 257 198 182 147 249 278 257 223 231 312 346 1 5 349 40 58 11 336 337 84 94 156 196 286 150 164 147 148 299 331
258 267 274 283 288 291 275 290 317 326 335 327 294 304 279 297 249 245 183 197 184 217 321 203 192 201 149 76 57 252 243 237 196 107 61 81 26 90 45 204 255 352 356 227 132 276 307
263 263 265 266 271 271 274 272 286 304 322 334 300 278 250 265 255 211 213 192 177 164 181 267 196 163 168 124 167 214 260 222 222 185 163 137 146 187 209 281 289 264 281 271 305 274 204
252 257 261 260 259 260 262 257 267 273 292 304 307 278 263 259 268 245 236 222 193 195 157 156 84 227 73 162 169 228 208 242 260 170 186 172 155 193 140 191 267 219 231 200 228 182 215
258 255 249 253 254 253 254 254 251 256 268 282 288 275 270 254 266 258 242 240 240 237 241 193 237 171 191 102 198 136 236 173 189 270 47 234 192 185 190 215 247 237 254 284 265 244 300
Wind_Speed_850mb
32 28 26 27 27 20 16 17 20 28 36 41 36 25 35 36 38 42 47 48 36 36 38 41 28 18 15 4 4 21 16 20 25 38 37 24 44 12 13 11 9 9 3 17 18 24 21
41 37 33 29 27 25 15 13 17 23 29 34 34 27 25 28 32 37 38 33 25 19 14 19 13 4 7 9 11 14 16 28 36 45 30 28 22 5 13 7 4 14 22 13 25 28 15
38 38 39 38 33 28 22 16 15 19 23 25 28 24 28 27 31 38 38 32 26 32 35 33 26 28 37 16 4 10 19 32 30 53 23 16 4 4 10 10 21 11 12 13 26 17 9
35 38 39 39 39 37 31 21 18 18 19 21 21 14 19 22 24 27 27 17 23 27 28 20 25 25 14 16 9 18 18 32 29 48 27 16 6 2 3 25 10 10 12 8 11 16 5
32 34 36 39 41 43 42 33 21 16 15 14 20 21 15 12 13 15 17 10 6 10 16 30 13 23 13 20 25 30 31 28 38 34 31 0 3 5 9 10 10 15 8 7 5 12 3
30 33 36 40 43 47 49 46 29 16 11 12 16 20 16 9 11 14 16 29 44 32 10 6 14 18 7 17 12 17 5 1 4 24 10 16 7 8 8 8 10 10 13 6 8 6 7
28 31 34 37 43 49 53 54 38 16 9 9 11 7 11 16 16 9 4 7 14 31 50 32 24 23 12 26 28 20 28 48 41 21 10 3 14 6 2 4 2 14 13 13 1 5 2
27 29 32 36 41 47 55 59 40 21 12 9 12 4 10 14 17 19 22 30 22 10 10 43 40 23 23 2 35 43 43 2 10 4 4 13 9 7 4 7 8 10 17 6 3 5 4
26 28 31 33 38 44 52 58 38 24 18 17 12 8 19 13 5 2 13 22 22 20 7 26 27 33 23 18 15 21 14 2 11 25 23 15 6 8 11 15 10 9 10 8 10 4 8
26 28 31 32 34 41 48 57 44 23 14 24 26 11 18 24 16 18 17 17 13 12 10 21 21 23 23 16 11 32 8 5 10 8 10 13 14 10 15 14 5 8 10 7 14 7 6
22 26 28 30 33 38 43 50 53 27 15 20 34 19 2 27 13 9 11 10 6 3 10 23 18 17 22 12 9 25 22 26 10 8 11 4 10 14 19 6 3 6 8 8 7 10 8
23 25 28 30 32 36 41 46 49 37 19 16 32 24 7 7 17 12 7 5 4 12 4 15 12 14 13 24 16 17 16 22 4 18 19 7 6 8 4 4 9 8 9 14 9 6 6
22 24 28 31 33 36 40 45 52 49 20 11 28 24 14 6 2 4 4 1 10 12 5 12 6 11 6 12 13 15 12 13 6 10 9 10 9 8 9 8 11 12 11 7 7 8 9
21 23 25 29 33 35 40 43 48 53 36 7 30 22 19 12 7 7 6 10 16 9 9 8 5 7 8 10 9 12 6 11 11 9 7 9 10 11 14 7 8 7 8 9 11 6 7
22 23 24 27 30 33 37 41 44 48 44 16 3 32 19 13 6 1 3 11 12 11 3 8 5 6 9 8 4 10 7 6 6 10 5 9 5 5 7 5 4 5 5 6 12 5 7
23 24 25 27 29 32 35 39 42 46 46 25 8 6 35 12 9 2 10 6 1 5 6 2 4 5 4 8 6 7 10 6 10 7 2 3 9 4 6 4 8 4 11 8 6 4 6
23 24 25 26 29 32 34 37 40 41 45 31 10 3 32 13 6 10 8 6 4 1 4 6 3 5 4 4 5 3 1 8 8 11 8 2 6 6 5 3 7 3 2 8 6 7 9
25 27 28 27 28 31 34 36 41 44 42 33 9 6 29 12 8 8 5 2 3 4 5 5 4 5 5 9 8 6 2 3 6 3 4 5 7 5 5 3 4 5 4 7 8 7 1
24 26 29 30 30 30 33 35 38 41 43 34 8 6 16 15 6 3 2 4 3 2 4 5 5 6 5 5 7 5 3 4 12 7 5 1 4 5 11 7 5 5 7 8 9 5 10
25 25 24 27 30 32 33 33 34 37 38 33 11 6 10 13 11 9 8 4 5 6 5 6 6 3 5 5 7 1 5 7 10 7 9 5 4 7 10 7 6 5 6 7 8 6 7
27 31 30 27 29 31 33 33 33 31 30 23 11 3 4 5 10 5 4 5 4 5 4 6 3 9 11 3 4 2 1 6 8 9 8 6 1 3 7 10 5 7 11 13 18 15 15
23 24 28 31 30 29 31 32 33 31 26 14 10 7 4 4 2 3 6 3 6 3 6 5 4 8 9 11 15 12 8 5 3 4 4 6 1 3 7 4 4 11 19 18 16 12 21
27 29 24 23 24 27 29 31 31 28 25 10 9 8 5 4 4 4 4 3 5 2 4 5 3 2 4 6 10 6 7 16 20 16 9 4 4 6 8 9 14 14 12 17 8 10 17
29 29 29 20 23 23 26 27 26 23 18 13 11 7 3 5 2 6 1 1 2 2 4 7 6 6 8 3 4 2 3 7 6 5 11 13 14 7 6 9 5 11 6 7 13 8 10
31 30 30 23 19 21 22 23 23 22 17 13 9 5 4 4 7 5 6 5 4 1 1 3 3 2 4 7 7 5 5 4 4 9 9 9 5 2 5 6 12 3 3 6 6 3 4
41 36 33 31 23 21 21 22 16 18 20 18 11 6 3 1 8 5 5 7 6 3 7 6 6 6 3 7 4 4 7 6 5 4 9 6 8 5 0 2 9 3 3 2 4 6 4
50 46 40 38 33 26 24 25 19 17 19 21 13 10 6 7 7 10 7 7 9 6 4 4 4 5 8 5 4 7 7 2 5 10 10 7 5 11 7 5 15 9 8 1 1 5 7
54 55 51 44 44 35 30 29 27 21 19 21 17 18 13 9 16 15 15 12 10 9 7 7 4 4 5 3 5 5 5 5 2 7 9 11 12 8 6 7 15 7 2 5 8 15 12
51 54 59 55 53 46 41 37 35 27 25 23 26 20 16 21 15 12 20 26 25 18 9 18 4 6 12 6 3 4 5 0 3 6 3 5 10 9 15 11 10 5 15 22 19 13 22
Wind_Direction_850mb
38 30 22 23 27 32 27 17 10 14 21 21 17 30 45 45 32 23 18 12 31 64 81 104 101 101 152 239 49 170 196 163 173 162 154 166 166 146 142 159 104 93 120 53 78 111 102
40 34 26 18 16 19 19 6 2 7 17 21 25 27 24 24 13 19 20 18 27 55 85 63 64 129 92 77 118 181 188 151 159 177 144 166 179 102 133 130 105 121 99 82 55 77 78
35 34 31 27 18 6 5 355 335 344 0 12 26 36 45 41 33 32 30 30 60 70 91 72 49 89 86 59 340 174 160 155 168 169 157 143 91 69 128 92 120 110 73 45 21 18 80
32 28 26 24 20 17 3 350 343 325 332 351 11 6 12 32 30 34 34 54 97 89 89 71 29 46 67 31 121 131 133 141 154 171 177 128 119 221 71 124 42 63 54 84 335 7 45
29 25 22 20 17 14 10 359 340 335 330 341 352 11 353 5 22 38 36 58 15 0 55 36 35 49 19 71 92 111 100 115 136 148 182 206 177 108 113 83 47 18 113 82 55 23 16
22 21 19 16 13 12 10 4 351 330 339 320 339 2 12 32 49 57 62 64 58 45 289 43 118 54 63 98 118 134 141 38 327 119 209 226 176 78 35 60 165 152 104 64 130 327 39
20 16 15 14 12 10 9 7 359 342 336 351 348 331 48 65 75 85 30 24 36 45 51 68 70 84 85 113 71 67 116 119 152 194 211 65 80 106 333 355 124 130 111 116 341 333 114
17 11 11 11 12 10 8 10 7 3 358 5 13 235 134 116 103 84 54 50 41 29 352 31 48 68 60 98 64 94 142 218 190 200 166 52 74 317 293 89 87 76 112 82 46 24 89
12 10 10 10 13 11 11 11 15 17 16 8 351 344 203 187 186 293 5 20 13 9 45 15 17 23 17 53 77 127 210 167 57 73 71 90 316 29 95 50 82 37 112 165 150 120 57
7 7 8 8 13 11 13 11 15 21 18 11 1 343 212 208 247 269 315 344 1 11 69 327 354 11 355 350 40 31 44 94 52 80 60 69 350 66 76 81 30 72 329 107 113 86 165
2 3 5 3 8 9 10 14 15 13 9 3 7 8 230 205 230 291 287 334 13 53 55 309 322 349 14 60 325 11 34 61 64 21 96 338 24 31 62 340 340 115 64 72 88 87 82
354 359 -0 359 1 5 4 8 13 14 7 12 12 18 35 189 232 267 268 301 19 46 301 332 327 350 19 20 12 3 39 75 65 56 34 87 45 57 82 43 65 125 66 45 51 67 37
346 354 354 354 356 359 1 2 4 8 5 32 22 29 42 68 134 197 180 180 38 86 281 312 330 355 22 3 12 30 22 18 51 81 3 3 5 347 37 71 30 70 52 11 12 9 214
336 346 350 350 352 356 358 360 1 3 359 14 42 37 42 46 63 117 135 54 69 240 267 286 310 335 46 359 9 18 46 22 14 47 97 113 346 5 341 49 145 70 129 148 185 181 252
325 333 340 344 347 353 355 356 359 0 2 352 279 36 29 33 33 160 133 52 179 208 263 338 331 57 357 4 41 56 51 16 17 14 94 121 19 337 34 14 45 190 63 160 105 65 43
312 321 329 335 341 347 351 352 355 358 360 355 346 311 11 6 36 84 78 126 60 238 330 359 56 33 43 337 50 54 8 325 340 25 67 161 98 8 342 20 26 78 148 65 4 136 270
297 307 316 325 332 339 345 347 350 358 357 356 355 299 3 5 24 51 98 182 179 301 354 18 348 321 29 13 27 78 321 353 2 330 27 93 104 286 22 208 186 73 74 57 113 138 171
292 298 305 316 324 332 339 344 346 352 357 0 1 18 357 357 40 49 80 67 124 72 32 35 34 5 12 0 34 59 67 187 343 309 37 338 116 143 192 256 214 176 176 141 121 230 71
284 290 300 309 316 325 333 339 344 351 354 358 360 354 355 4 93 37 188 110 109 97 86 53 34 35 11 16 350 14 65 38 11 38 109 237 25 44 353 0 356 215 197 143 114 97 202
280 278 287 297 308 317 325 333 341 347 352 352 350 10 22 46 63 127 144 195 151 163 144 140 147 90 22 33 15 262 345 353 13 64 53 53 100 160 189 204 151 227 221 182 144 139 189
294 289 287 290 301 310 317 324 332 342 349 355 13 86 62 330 5 27 31 176 164 180 211 187 138 152 146 110 11 83 14 343 5 7 27 70 343 39 267 252 267 253 229 194 194 198 195
309 288 282 288 295 301 309 321 329 339 348 359 8 4 22 83 43 42 355 256 213 294 156 269 191 197 180 169 170 176 152 168 181 18 48 4 224 89 294 18 204 264 248 232 232 242 259
305 310 280 275 284 295 304 313 323 333 350 9 22 10 352 0 55 54 270 261 264 30 304 320 240 48 294 260 188 200 208 168 168 156 154 95 86 28 292 344 306 281 229 207 193 205 207
293 301 313 290 277 287 301 312 326 330 342 3 11 349 336 276 149 203 205 37 315 327 324 338 349 341 348 13 324 317 293 290 233 323 171 148 141 141 248 5 343 251 308 225 211 256 245
272 282 294 306 286 285 289 306 321 331 335 326 341 4 320 283 244 257 198 182 147 249 278 257 223 231 312 346 1 5 349 40 58 11 336 337 84 94 156 196 286 150 164 147 148 299 331
258 267 274 283 288 291 275 290 317 326 335 327 294 304 279 297 249 245 183 197 184 217 321 203 192 201 149 76 57 252 243 237 196 107 61 81 26 90 45 204 255 352 356 227 132 276 307
263 263 265 266 271 271 274 272 286 304 322 334 300 278 250 265 255 211 213 192 177 164 181 267 196 163 168 124 167 214 260 222 222 185 163 137 146 187 209 281 289 264 281 271 305 274 204
252 257 261 260 259 260 262 257 267 273 292 304 307 278 263 259 268 245 236 222 193 195 157 156 84 227 73 162 169 228 208 242 260 170 186 172 155 193 140 191 267 219 231 200 228 182 215
258 255 249 253 254 253 254 254 251 256 268 282 288 275 270 254 266 258 242 240 240 237 241 193 237 171 191 102 198 136 236 173 189 270 47 234 192 185 190 215 247 237 254 284 265 244 300